Regional Weather Roundup
Issued by NWS

Home | Current Version | Previous Version | Graphics & Text | Print | Product List | Glossary On
Versions: 1 2 3 4 5 6 7 8 9 10 11 12 13 14 15 16 17 18 19 20 21 22 23 24 25 26 27 28 29 30 31 32 33 34 35 36 37 38 39 40 41 42 43 44 45 46 47 48 49 50
170
ASUS43 KIND 201109
RWRIN

WEATHER ROUNDUP FOR INDIANA
NATIONAL WEATHER SERVICE INDIANAPOLIS IN
700 AM EDT THU JUL 20 2017

NOTE: "FAIR" INDICATES FEW OR NO CLOUDS BELOW 12,000 FEET WITH NO
SIGNIFICANT WEATHER AND/OR OBSTRUCTIONS TO VISIBILITY.

* - STATION DOES NOT REPORT WEATHER SUCH AS PRECIPITATION OR FOG.

+ - STATION NOT QUALITY CONTROLLED BY THE NATIONAL WEATHER SERVICE.
    USE DATA WITH CAUTION...ESPECIALLY DEWPOINT AND RELATIVE
    HUMIDITY OBSERVATIONS.

INZ001>003-010>013-019-020-201200-
NORTHWEST INDIANA

CITY           SKY/WX    TMP DP  RH WIND       PRES   REMARKS
GARY /AIRPORT/ MOCLDY    72  68  88 CALM      30.04S
KNOX *+        CLOUDY    68  68 100 SW5       30.05R
LA PORTE +     CLOUDY    69  67  94 W7        30.05F
MICHIGAN CITY+ RAIN      68  68 100 SW7       30.04F
MONTICELLO +   CLOUDY    69  68  95 CALM      30.05R
RENSSELAER +   CLOUDY    70  66  88 CALM      30.05R
VALPARAISO     CLOUDY    71  69  93 SW5       30.05S

$$

LMZ046-743>745-201200-
SOUTHERN LAKE MICHIGAN

STATION/POSITION TIME  TEMP    WIND        PRES    WAVE
                       AIR SEA DIR/SP/G            HT
                 (UTC) (F)     (DEG/KT/KT) (MB)    (FT)
BURNS HARBOR     1040   71     200/  2/  2 1017.6R
MICHIGAN CITY    1040   71     120/  5/  6   N/A
5NW MICH CITY    1100   71 74  190/  6/  8   N/A     1

$$

INZ004-005-014>016-021>024-201200-
NORTH CENTRAL INDIANA

CITY           SKY/WX    TMP DP  RH WIND       PRES   REMARKS
ELKHART        CLOUDY    72  64  78 CALM      30.05
LOGANSPORT +   CLOUDY    70  68  94 CALM      30.07R
PERU/GRISSOM   CLOUDY    71  71 100 W6        30.05R
ROCHESTER +    CLOUDY    72  72 100 W5        30.07R
SOUTH BEND     CLOUDY    69  67  93 S5        30.05R
WARSAW +       CLOUDY    68  66  94 SW3       30.07R

$$

INZ006>009-017-018-025>027-201200-
NORTHEAST INDIANA

CITY           SKY/WX    TMP DP  RH WIND       PRES   REMARKS
ANGOLA *+      CLEAR     72  64  78 NW5       30.05R
AUBURN +       CLOUDY    72  64  78 S3        30.06R
FORT WAYNE     CLOUDY    72  66  81 NW5       30.08R
HUNTINGTON +   CLOUDY    70  69  96 NE3       30.08R
KENDALLVILLE + CLOUDY   N/A N/A N/A W3        30.06R

$$

INZ028-029-035-036-043>045-051>053-201200-
WEST CENTRAL INDIANA

CITY           SKY/WX    TMP DP  RH WIND       PRES   REMARKS
GREENCASTLE +  PTCLDY    70  70 100 S3        30.07S FOG
LAFAYETTE      PTCLDY    69  69 100 CALM      30.04R
TERRE HAUTE    CLOUDY    74  71  91 SE5       30.06R

$$

INZ030>032-037>040-046>048-054>057-064-065-201200-
CENTRAL INDIANA

CITY           SKY/WX    TMP DP  RH WIND       PRES   REMARKS
CP ATTERBURY + PTCLDY    70  68  94 CALM      30.08R FOG
COLUMBUS       MOCLDY    70  68  94 CALM      30.07
FRANKFORT +    CLOUDY    71  70  96 CALM      30.08R
INDIANAPOLIS   CLOUDY    75  71  87 SW7       30.05R
-EAGLE CREEK   CLOUDY    75  70  84 CALM      30.05R
KOKOMO +       CLOUDY    72  69  90 SW5       30.07R
MT COMFORT *+  CLOUDY    72  70  94 CALM      30.07R
SHELBYVILLE    MOCLDY    74  70  87 S3        30.07R
ZIONSVILLE +   CLOUDY    70  69  95 CALM      30.08R

$$

INZ033-034-041-042-049-050-058-059-201200-
EAST CENTRAL INDIANA

CITY           SKY/WX    TMP DP  RH WIND       PRES   REMARKS
MUNCIE         CLOUDY    76  69  79 SW5       30.06R
RICHMOND +     CLOUDY    70  70 100 W8        30.10R

$$

INZ060-061-067>069-081>083-085>088-201200-
SOUTHWEST INDIANA

CITY           SKY/WX    TMP DP  RH WIND       PRES   REMARKS
EVANSVILLE     PTCLDY    75  73  93 CALM      30.07R
HUNTINGBURG *+ CLEAR     72  71  97 CALM      30.08R FOG

$$

INZ062-063-066-070>080-084-089>092-201200-
SOUTH CENTRAL AND SOUTHEAST INDIANA

CITY           SKY/WX    TMP DP  RH WIND       PRES   REMARKS
BEDFORD +      PTCLDY    72  68  88 CALM      30.08R
BLOOMINGTON    CLOUDY    71  68  90 CALM      30.08R
MADISON *+     MOCLDY    70  70 100 CALM      30.10R
NORTH VERNON + CLOUDY    70  68  94 CALM      30.08R
SEYMOUR +      CLOUDY    72  72 100 CALM      30.07R FOG

$$





USA.gov is the U.S. government's official web portal to all federal, state and local government web resources and services.